Flag for Netherlands Weather past 2 weeks in Amsterdam, Netherlands

Now
37 °F

Sprinkles. Broken clouds.


Feels Like: 27 °F
Forecast: 30 / 36 °F
Wind: 21 mph from Southwest

Location: Amsterdam Schiphol Airport

Current Time: Jan 29, 2015 at 3:40:23 PM

Latest Report: Jan 29, 2015 at 2:55 PM


Visibility: N/A

Pressure: 28.91 "Hg

Humidity: 81%

Dew point: 32 °F

Location of AmsterdamLocation

Historic Weather in Amsterdam — Graph

°F

Amsterdam temperature yesterday

Maximum temperature yesterday: 45 °F (at 2:55 PM)
Minimum temperature yesterday: 37 °F (at 3:55 PM)
Average temperature yesterday: 42 °F

Past Weeks' High & Low Weather Summary

 TemperatureHumidityPressure
High50 °F (Jan 15, 7:55 AM)100% (Jan 18, 6:25 AM)30.39 "Hg (Jan 18, 6:25 AM)
Low21 °F (Jan 23, 4:25 AM)65% (Jan 28, 11:55 PM)28.94 "Hg (Jan 29, 1:55 PM)
Average37 °F88%29.90 "Hg
* Reported Jan 14 2:25 PM — Jan 29 2:25 PM, Amsterdam, Weather by CustomWeather, © 2014

Note: Actual official high and low records may vary slightly from our data, if they occured in-between our weather recording intervals... More about our weather records

Advertising

Amsterdam weather history for previous 24 hours

 ConditionsComfort  
Time TempWeatherWind HumidityBarometerVisibility
2:25 PM
Jan 29
37 °FSprinkles. Broken clouds.17 mph87%28.94 "HgN/A
1:55 PM39 °FScattered showers. Partly sunny.20 mph81%28.94 "HgN/A
1:25 PM41 °FSprinkles. Broken clouds.23 mph70%28.97 "HgN/A
12:55 PM41 °FSprinkles. Broken clouds.22 mph76%29.00 "HgN/A
12:25 PM39 °FSprinkles. Scattered clouds.22 mph81%29.03 "HgN/A
11:55 AM39 °FSprinkles. Broken clouds.22 mph81%29.03 "HgN/A
11:25 AM41 °FSprinkles. Broken clouds.22 mph70%29.06 "HgN/A
10:55 AM41 °FSprinkles. Scattered clouds.20 mph70%29.06 "HgN/A
10:25 AM39 °FSprinkles. Scattered clouds.25 mph70%29.09 "HgN/A
9:55 AM39 °FScattered showers. Passing clouds.23 mph75%29.09 "HgN/A
9:25 AM39 °FScattered showers. Passing clouds.24 mph70%29.12 "HgN/A
8:55 AM39 °FScattered showers. Scattered clouds.23 mph70%29.12 "HgN/A
8:25 AM39 °FSprinkles. Passing clouds.26 mph70%29.15 "HgN/A
7:55 AM39 °FSprinkles. Passing clouds.24 mph70%29.15 "HgN/A
7:25 AM39 °FPassing clouds.25 mph70%29.18 "HgN/A
6:55 AM39 °FPassing clouds.24 mph70%29.18 "HgN/A
6:25 AM39 °FSprinkles. Passing clouds.26 mph70%29.18 "HgN/A
5:55 AM39 °FPassing clouds.29 mph70%29.21 "HgN/A
5:25 AM39 °FScattered showers. Passing clouds.25 mph70%29.21 "HgN/A
4:55 AM39 °FPassing clouds.23 mph70%29.24 "HgN/A
4:25 AM41 °FPassing clouds.24 mph66%29.24 "HgN/A
3:55 AM41 °FPassing clouds.25 mph66%29.27 "HgN/A
3:25 AM41 °FPassing clouds.23 mph66%29.30 "HgN/A
2:55 AM41 °FPassing clouds.22 mph66%29.30 "HgN/A
2:25 AM39 °FPassing clouds.23 mph70%29.33 "HgN/A
1:55 AM39 °FPassing clouds.24 mph70%29.33 "HgN/A
1:25 AM39 °FPassing clouds.23 mph70%29.33 "HgN/A
12:55 AM39 °FPassing clouds.25 mph70%29.36 "HgN/A
12:25 AM39 °FPassing clouds.25 mph65%29.36 "HgN/A
11:55 PM
Jan 28
39 °FPartly cloudy.26 mph65%29.36 "HgN/A
11:25 PM39 °FPassing clouds.28 mph70%29.39 "HgN/A
10:55 PM39 °FPassing clouds.26 mph70%29.39 "HgN/A
10:25 PM39 °FPassing clouds.28 mph70%29.39 "HgN/A
9:55 PM41 °FPassing clouds.28 mph66%29.39 "HgN/A
9:25 PM41 °FPartly cloudy.26 mph70%29.39 "HgN/A
8:55 PM41 °FPassing clouds.29 mph66%29.39 "HgN/A
8:25 PM41 °FPassing clouds.28 mph70%29.39 "HgN/A
7:55 PM41 °FPassing clouds.29 mph66%29.39 "HgN/A
7:25 PM41 °FPassing clouds.26 mph70%29.39 "HgN/A
6:55 PM41 °FPassing clouds.29 mph70%29.39 "HgN/A
6:25 PM41 °FPassing clouds.26 mph70%29.39 "HgN/A
5:55 PM41 °FPassing clouds.26 mph70%29.36 "HgN/A
5:25 PM41 °FPassing clouds.23 mph76%29.36 "HgN/A
4:55 PM39 °FPassing clouds.17 mph81%29.36 "HgN/A
4:25 PM39 °FLight rain. Broken clouds.24 mph93%29.39 "HgN/A
3:55 PM37 °FLight rain. Broken clouds.22 mph93%29.36 "Hg6 mi
3:25 PM45 °FDrizzle. Broken clouds.31 mph93%29.33 "Hg4 mi
Weather by CustomWeather, © 2014

See weather overviewHow to use our weather pages